This is the latest recevied weather packets stored in our database for station/object AI9F. If no packets are shown the sender has not sent any weather packets the latest 10 day(s).
| Time | Temp. | Humidity | Pressure | Rain* | Wind** | Luminosity | Snow |
|---|---|---|---|---|---|---|---|
| 1777770609 | 9.44° C | 62% | 1018.9 hPa | 0 mm | - | 0 W/m² | - |
| 1777770305 | 9.44° C | 62% | 1019.1 hPa | 0 mm | - | 0 W/m² | - |
| 1777770003 | 10° C | 60% | 1019.1 hPa | 0 mm | - | 0 W/m² | - |
| 1777769699 | 10° C | 57% | 1018.9 hPa | 0 mm | - | 1 W/m² | - |
| 1777769396 | 10° C | 57% | 1019.2 hPa | 0 mm | - | 2 W/m² | - |
| 1777769093 | 10.56° C | 56% | 1019.1 hPa | 0 mm | - | 3 W/m² | - |
| 1777768791 | 11.11° C | 54% | 1018.8 hPa | 0 mm | - | 5 W/m² | - |
| 1777768487 | 11.67° C | 53% | 1018.7 hPa | 0 mm | - | 8 W/m² | - |
| 1777768184 | 12.22° C | 49% | 1018.8 hPa | 0 mm | - | 11 W/m² | - |
| 1777767882 | 12.22° C | 48% | 1018.8 hPa | 0 mm | - | 14 W/m² | - |
| 1777767577 | 12.78° C | 47% | 1018.8 hPa | 0 mm | - | 18 W/m² | - |
| 1777767275 | 12.78° C | 46% | 1018.9 hPa | 0 mm | - | 23 W/m² | - |
| 1777766972 | 12.78° C | 44% | 1018.6 hPa | 0 mm | - | 28 W/m² | - |
| 1777766669 | 13.33° C | 43% | 1018.6 hPa | 0 mm | - | 30 W/m² | - |
| 1777766366 | 13.89° C | 44% | 1018.7 hPa | 0 mm | - | 38 W/m² | - |
| 1777766063 | 14.44° C | 45% | 1018.7 hPa | 0 mm | - | 47 W/m² | - |
| 1777765760 | 14.44° C | 40% | 1018.7 hPa | 0 mm | - | 53 W/m² | - |
| 1777765457 | 14.44° C | 38% | 1018.6 hPa | 0 mm | - | 61 W/m² | - |
| 1777765154 | 15° C | 35% | 1018.6 hPa | 0 mm | - | 69 W/m² | - |
| 1777764849 | 15.56° C | 38% | 1018.6 hPa | 0 mm | - | 75 W/m² | - |
| 1777764547 | 15.56° C | 39% | 1018.7 hPa | 0 mm | - | 84 W/m² | - |
| 1777764243 | 15.56° C | 40% | 1018.7 hPa | 0 mm | - | 92 W/m² | - |
| 1777763940 | 15° C | 39% | 1018.4 hPa | 0 mm | - | 99 W/m² | - |
| 1777763637 | 15° C | 42% | 1018.4 hPa | 0 mm | - | 109 W/m² | - |
| 1777763335 | 15.56° C | 40% | 1018.4 hPa | 0 mm | - | 121 W/m² | - |
* Rain latest hour (hover to see other rain measurements)
** Current wind speed in m/s (hover to see current wind gust speed)